When you browse on this site, cookies collect data to enhance your experience and personalize the content and advertising you see.
Visit our Privacy Policy to learn more. By continuing to use the site, you agree to this use of cookies and data.
  • In Hungary
  • List of Countries
  • For 7 days
  • Water Temperature
  • Weather Map
  • News
  • Weather Widgets
  • user-avatar
    Login

    Hourly Weather Borlino

    Today, 20 January, Monday

    Time Temperature Precipitation Wind Pressure Humidity
    00:00 0°C° 0 mm 5 mps 750 mmHg 89%
    01:00 0°C° 0 mm 5 mps 750 mmHg 87%
    02:00 0°C° 0 mm 4 mps 750 mmHg 86%
    03:00 0°C° 0 mm 4 mps 750 mmHg 87%
    04:00 0°C° 0 mm 4 mps 750 mmHg 89%
    05:00 0°C° 0 mm 4 mps 750 mmHg 90%
    06:00 -1°C° 0.1 mm 4 mps 750 mmHg 91%
    07:00 -1°C° 0.1 mm 4 mps 750 mmHg 93%
    08:00 -1°C° 0 mm 5 mps 750 mmHg 93%
    09:00 -1°C° 0 mm 5 mps 750 mmHg 91%
    10:00 -1°C° 0 mm 5 mps 750 mmHg 89%
    11:00 -1°C° 0 mm 5 mps 750 mmHg 87%
    12:00 -1°C° 0 mm 5 mps 750 mmHg 89%
    13:00 -1°C° 0 mm 5 mps 750 mmHg 90%
    14:00 -1°C° 0 mm 5 mps 750 mmHg 92%
    15:00 -1°C° 0 mm 5 mps 750 mmHg 91%
    16:00 -1°C° 0 mm 5 mps 749 mmHg 91%
    17:00 -1°C° 0 mm 5 mps 749 mmHg 90%
    18:00 -1°C° 0 mm 5 mps 749 mmHg 87%
    19:00 -1°C° 0 mm 5 mps 748 mmHg 84%
    20:00 -1°C° 0 mm 5 mps 748 mmHg 81%
    21:00 -1°C° 0 mm 5 mps 747 mmHg 81%
    22:00 -1°C° 0 mm 5 mps 746 mmHg 81%
    23:00 -1°C° 0 mm 5 mps 746 mmHg 81%

    Tomorrow, 21 January, Tuesday

    Time Temperature Precipitation Wind Pressure Humidity
    00:00 -1°C° 0 mm 5 mps 745 mmHg 82%
    01:00 -1°C° 0 mm 5 mps 745 mmHg 83%
    02:00 -1°C° 0 mm 5 mps 744 mmHg 84%
    03:00 -1°C° 0 mm 5 mps 743 mmHg 85%
    04:00 -1°C° 0 mm 6 mps 742 mmHg 86%
    05:00 -1°C° 0 mm 6 mps 741 mmHg 87%
    06:00 +1°C° 0.2 mm 6 mps 740 mmHg 87%
    07:00 +1°C° 0.2 mm 6 mps 739 mmHg 87%
    08:00 +1°C° 0.2 mm 6 mps 739 mmHg 87%
    09:00 +1°C° 0 mm 6 mps 738 mmHg 88%
    10:00 +2°C° 0 mm 6 mps 738 mmHg 88%
    11:00 +2°C° 0 mm 6 mps 737 mmHg 88%
    12:00 +2°C° 0.1 mm 6 mps 737 mmHg 89%
    13:00 +3°C° 0.1 mm 5 mps 736 mmHg 89%
    14:00 +3°C° 0.1 mm 5 mps 735 mmHg 90%
    15:00 +3°C° 1.1 mm 5 mps 734 mmHg 91%
    16:00 +3°C° 1.1 mm 5 mps 733 mmHg 92%
    17:00 +3°C° 1.1 mm 5 mps 732 mmHg 93%
    18:00 +2°C° 0.4 mm 5 mps 732 mmHg 89%
    19:00 +2°C° 0.4 mm 6 mps 732 mmHg 84%
    20:00 0°C° 0.4 mm 7 mps 732 mmHg 80%
    21:00 -1°C° 0 mm 7 mps 733 mmHg 76%
    22:00 -1°C° 0 mm 7 mps 733 mmHg 72%
    23:00 -2°C° 0 mm 7 mps 733 mmHg 69%

    Day after tomorrow, 22 January, Wednesday

    Time Temperature Precipitation Wind Pressure Humidity
    00:00 -3°C° 0 mm 7 mps 733 mmHg 71%
    01:00 -3°C° 0 mm 6 mps 733 mmHg 73%
    02:00 -4°C° 0 mm 6 mps 733 mmHg 75%
    03:00 -4°C° 0 mm 6 mps 732 mmHg 77%
    04:00 -4°C° 0 mm 6 mps 732 mmHg 79%
    05:00 -4°C° 0 mm 6 mps 731 mmHg 81%
    06:00 -4°C° 0.1 mm 5 mps 730 mmHg 81%
    07:00 -4°C° 0.1 mm 5 mps 730 mmHg 81%
    08:00 -4°C° 0.1 mm 5 mps 730 mmHg 82%
    09:00 -4°C° 0.3 mm 5 mps 729 mmHg 81%
    10:00 -4°C° 0.3 mm 5 mps 729 mmHg 80%
    11:00 -2°C° 0.3 mm 5 mps 729 mmHg 80%
    12:00 -2°C° 0.4 mm 5 mps 729 mmHg 77%
    13:00 -2°C° 0.4 mm 5 mps 728 mmHg 75%
    14:00 -4°C° 0.4 mm 5 mps 728 mmHg 73%
    15:00 -4°C° 0 mm 5 mps 728 mmHg 77%
    16:00 -4°C° 0 mm 5 mps 729 mmHg 80%
    17:00 -5°C° 0 mm 5 mps 729 mmHg 84%
    18:00 -5°C° 0 mm 5 mps 730 mmHg 84%
    19:00 -5°C° 0 mm 6 mps 730 mmHg 84%
    20:00 -5°C° 0 mm 6 mps 731 mmHg 84%
    21:00 -6°C° 0 mm 6 mps 731 mmHg 82%
    22:00 -8°C° 0 mm 6 mps 732 mmHg 80%
    23:00 -8°C° 0 mm 6 mps 733 mmHg 79%

    23 January, Thursday

    Time Temperature Precipitation Wind Pressure Humidity
    00:00 -8°C° 0 mm 6 mps 734 mmHg 75%
    01:00 -9°C° 0 mm 6 mps 734 mmHg 72%
    02:00 -9°C° 0 mm 6 mps 735 mmHg 69%
    03:00 -9°C° 0 mm 6 mps 736 mmHg 66%
    04:00 -9°C° 0 mm 6 mps 736 mmHg 64%
    05:00 -9°C° 0 mm 6 mps 737 mmHg 62%
    06:00 -9°C° 0 mm 6 mps 737 mmHg 62%
    07:00 -9°C° 0 mm 6 mps 738 mmHg 63%
    08:00 -9°C° 0 mm 6 mps 738 mmHg 63%
    09:00 -8°C° 0.1 mm 6 mps 739 mmHg 66%
    10:00 -8°C° 0.1 mm 6 mps 739 mmHg 69%
    11:00 -8°C° 0.1 mm 6 mps 739 mmHg 73%
    12:00 -8°C° 0 mm 6 mps 740 mmHg 68%
    13:00 -8°C° 0 mm 6 mps 740 mmHg 63%
    14:00 -7°C° 0 mm 5 mps 741 mmHg 58%
    15:00 -8°C° 0 mm 5 mps 742 mmHg 60%
    16:00 -8°C° 0 mm 4 mps 742 mmHg 63%
    17:00 -9°C° 0 mm 4 mps 743 mmHg 65%
    18:00 -8°C° 0 mm 3 mps 743 mmHg 67%
    19:00 -8°C° 0 mm 3 mps 743 mmHg 69%
    20:00 -7°C° 0 mm 2 mps 743 mmHg 70%
    21:00 -7°C° 0 mm 2 mps 743 mmHg 68%
    22:00 -7°C° 0 mm 2 mps 743 mmHg 66%
    23:00 -7°C° 0 mm 2 mps 743 mmHg 64%

    24 January, Friday

    Time Temperature Precipitation Wind Pressure Humidity
    00:00 -7°C° 0 mm 2 mps 743 mmHg 70%
    01:00 -7°C° 0 mm 3 mps 742 mmHg 76%
    02:00 -7°C° 0 mm 3 mps 742 mmHg 82%
    03:00 -6°C° 0.2 mm 3 mps 741 mmHg 85%
    04:00 -5°C° 0.2 mm 4 mps 740 mmHg 88%
    05:00 -4°C° 0.2 mm 4 mps 739 mmHg 92%
    06:00 -4°C° 0.5 mm 4 mps 739 mmHg 93%
    07:00 -4°C° 0.5 mm 4 mps 738 mmHg 94%
    08:00 -4°C° 0.5 mm 4 mps 738 mmHg 95%
    09:00 -3°C° 0.1 mm 4 mps 737 mmHg 94%
    10:00 -2°C° 0.1 mm 4 mps 737 mmHg 93%
    11:00 -1°C° 0.1 mm 4 mps 737 mmHg 92%
    12:00 0°C° 0 mm 4 mps 737 mmHg 92%
    13:00 0°C° 0 mm 4 mps 736 mmHg 91%
    14:00 +1°C° 0 mm 4 mps 736 mmHg 91%
    15:00 +1°C° 0 mm 4 mps 736 mmHg 91%
    16:00 +1°C° 0 mm 4 mps 736 mmHg 92%
    17:00 +1°C° 0 mm 4 mps 736 mmHg 93%
    18:00 +1°C° 0.1 mm 4 mps 736 mmHg 94%
    19:00 +1°C° 0.1 mm 4 mps 735 mmHg 94%
    20:00 +1°C° 0.1 mm 4 mps 735 mmHg 95%
    21:00 +1°C° 0.2 mm 4 mps 735 mmHg 96%
    22:00 +1°C° 0.2 mm 4 mps 735 mmHg 96%
    23:00 +1°C° 0.2 mm 4 mps 735 mmHg 96%

    25 January, Saturday

    Time Temperature Precipitation Wind Pressure Humidity
    00:00 +1°C° 0.4 mm 4 mps 735 mmHg 96%
    01:00 +1°C° 0.4 mm 4 mps 735 mmHg 96%
    02:00 +1°C° 0.4 mm 4 mps 735 mmHg 96%
    03:00 +2°C° 0.2 mm 3 mps 735 mmHg 96%
    04:00 +2°C° 0.2 mm 3 mps 736 mmHg 96%
    05:00 +1°C° 0.2 mm 3 mps 736 mmHg 95%
    06:00 +1°C° 0 mm 3 mps 736 mmHg 96%
    07:00 +2°C° 0 mm 2 mps 736 mmHg 96%
    08:00 +2°C° 0 mm 2 mps 736 mmHg 97%
    09:00 +2°C° 0.1 mm 2 mps 736 mmHg 97%
    10:00 +2°C° 0.1 mm 2 mps 737 mmHg 97%
    11:00 +2°C° 0.1 mm 2 mps 737 mmHg 97%
    12:00 +2°C° 0.1 mm 2 mps 737 mmHg 97%
    13:00 +2°C° 0.1 mm 2 mps 737 mmHg 97%
    14:00 +2°C° 0.1 mm 2 mps 737 mmHg 96%
    15:00 +2°C° 0.1 mm 2 mps 737 mmHg 96%
    16:00 +2°C° 0.1 mm 2 mps 737 mmHg 96%
    17:00 +2°C° 0.1 mm 2 mps 737 mmHg 97%
    18:00 +2°C° 0 mm 2 mps 738 mmHg 96%
    19:00 +2°C° 0 mm 2 mps 738 mmHg 95%
    20:00 0°C° 0 mm 3 mps 738 mmHg 94%
    21:00 +1°C° 0 mm 2 mps 738 mmHg 94%
    22:00 +1°C° 0 mm 2 mps 739 mmHg 94%
    23:00 +1°C° 0 mm 2 mps 739 mmHg 94%
    Show more